2016-08-23 00:06:56 r, 19.60m,0000000001Hz,0000378161c,0000000.821s, 030.6C,00002191
2016-08-23 00:16:56 r, 19.01m,0000000002Hz,0000220176c,0000000.478s, 030.6C,00002191
2016-08-23 00:26:57 r, 19.42m,0000000001Hz,0000322461c,0000000.700s, 030.6C,00002191
2016-08-23 00:36:56 r, 19.43m,0000000001Hz,0000326570c,0000000.709s, 030.6C,00002191
2016-08-23 00:46:56 r, 19.66m,0000000001Hz,0000402266c,0000000.873s, 030.6C,00002191
2016-08-23 00:56:56 r, 19.16m,0000000002Hz,0000253532c,0000000.550s, 030.2C,00002191
2016-08-23 01:06:56 r, 19.24m,0000000002Hz,0000272514c,0000000.591s, 030.2C,00002191
2016-08-23 01:16:56 r, 19.35m,0000000001Hz,0000302542c,0000000.657s, 030.2C,00002191
2016-08-23 01:26:56 r, 19.30m,0000000001Hz,0000287840c,0000000.625s, 030.2C,00002191
2016-08-23 01:36:56 r, 18.94m,0000000002Hz,0000207401c,0000000.450s, 029.9C,00002191
2016-08-23 01:46:56 r, 18.88m,0000000002Hz,0000195783c,0000000.425s, 029.9C,00002191
2016-08-23 01:56:56 r, 18.81m,0000000002Hz,0000183295c,0000000.398s, 029.9C,00002191
2016-08-23 02:06:56 r, 18.64m,0000000003Hz,0000157538c,0000000.342s, 029.9C,00002191
2016-08-23 02:16:56 r, 18.58m,0000000003Hz,0000148814c,0000000.323s, 029.9C,00002191
2016-08-23 02:26:56 r, 18.53m,0000000003Hz,0000143358c,0000000.311s, 029.9C,00002191
2016-08-23 02:36:56 r, 18.66m,0000000003Hz,0000159224c,0000000.346s, 029.9C,00002191
2016-08-23 02:46:56 r, 18.85m,0000000002Hz,0000190081c,0000000.413s, 029.6C,00002191
2016-08-23 02:56:56 r, 18.91m,0000000003Hz,0000199689c,0000000.433s, 029.6C,00002191
2016-08-23 03:06:56 r, 18.74m,0000000003Hz,0000172913c,0000000.375s, 029.6C,00002191
2016-08-23 03:16:56 r, 18.88m,0000000002Hz,0000194880c,0000000.423s, 029.6C,00002191
2016-08-23 03:26:56 r, 18.82m,0000000002Hz,0000185141c,0000000.402s, 029.3C,00002191
2016-08-23 03:36:56 r, 18.79m,0000000003Hz,0000179592c,0000000.390s, 029.3C,00002191
2016-08-23 03:46:56 r, 18.69m,0000000003Hz,0000163945c,0000000.356s, 029.3C,00002191
2016-08-23 03:56:56 r, 18.66m,0000000003Hz,0000159354c,0000000.346s, 029.0C,00002191
2016-08-23 04:06:56 r, 18.26m,0000000004Hz,0000110555c,0000000.240s, 029.0C,00002191
2016-08-23 04:16:56 r, 18.22m,0000000004Hz,0000106871c,0000000.232s, 029.0C,00002191
2016-08-23 04:26:56 r, 18.40m,0000000004Hz,0000125674c,0000000.273s, 029.0C,00002191
2016-08-23 04:36:56 r, 18.26m,0000000004Hz,0000110394c,0000000.240s, 029.0C,00002191
2016-08-23 04:46:56 r, 18.00m,0000000005Hz,0000087404c,0000000.190s, 029.0C,00002191
2016-08-23 04:56:56 r, 18.08m,0000000005Hz,0000094152c,0000000.204s, 029.0C,00002191
2016-08-23 05:06:56 r, 18.02m,0000000005Hz,0000088559c,0000000.192s, 029.0C,00002191
2016-08-23 05:16:56 r, 17.42m,0000000009Hz,0000050772c,0000000.110s, 029.3C,00002191
2016-08-23 05:26:56 r, 17.31m,0000000009Hz,0000045841c,0000000.099s, 029.3C,00002191
2016-08-23 05:36:56 r, 16.47m,0000000021Hz,0000021361c,0000000.046s, 029.3C,00002191
2016-08-23 05:46:56 r, 15.17m,0000000072Hz,0000006392c,0000000.014s, 029.3C,00002191
2016-08-23 05:56:56 r, 13.10m,0000000487Hz,0000000000c,0000000.000s, 029.3C,00002191
2016-08-23 06:06:56 r, 11.74m,0000001711Hz,0000000000c,0000000.000s, 029.3C,00002191
2016-08-23 06:16:56 r, 09.91m,0000009180Hz,0000000000c,0000000.000s, 029.6C,00002191
2016-08-23 06:26:56 r, 08.33m,0000039330Hz,0000000000c,0000000.000s, 029.3C,00002191
2016-08-23 06:36:56 r, 07.31m,0000100564Hz,0000000000c,0000000.000s, 029.3C,00002191
2016-08-23 06:46:56 r, 06.59m,0000196439Hz,0000000000c,0000000.000s, 029.6C,00002191
2016-08-23 06:56:56 r, 06.12m,0000301101Hz,0000000000c,0000000.000s, 029.6C,00002191
2016-08-23 07:06:56 r, 00.00m,0000409144Hz,0000000000c,0000000.000s, 029.9C,00002191
2016-08-23 07:16:56 r, 00.00m,0000469657Hz,0000000000c,0000000.000s, 029.9C,00002191
2016-08-23 07:26:56 r, 00.00m,0000595308Hz,0000000000c,0000000.000s, 030.2C,00002191
2016-08-23 07:36:56 r, 00.00m,0000595248Hz,0000000000c,0000000.000s, 030.6C,00002191
2016-08-23 07:46:56 r, 00.00m,0000595253Hz,0000000000c,0000000.000s, 031.2C,00002191
2016-08-23 07:56:56 r, 00.00m,0000595195Hz,0000000000c,0000000.000s, 031.9C,00002191
2016-08-23 08:06:56 r, 00.00m,0000595200Hz,0000000000c,0000000.000s, 032.2C,00002191
2016-08-23 08:16:56 r, 00.00m,0000595200Hz,0000000000c,0000000.000s, 032.2C,00002191
2016-08-23 08:26:56 r, 00.00m,0000595196Hz,0000000000c,0000000.000s, 031.9C,00002191
2016-08-23 08:36:56 r, 00.00m,0000595175Hz,0000000000c,0000000.000s, 032.2C,00002191
2016-08-23 08:46:56 r, 00.00m,0000594940Hz,0000000000c,0000000.000s, 033.8C,00002191
2016-08-23 08:56:56 r, 00.00m,0000594705Hz,0000000000c,0000000.000s, 035.4C,00002191
2016-08-23 09:06:56 r, 00.00m,0000594488Hz,0000000000c,0000000.000s, 037.0C,00002191
2016-08-23 09:16:56 r, 00.00m,0000594438Hz,0000000000c,0000000.000s, 038.6C,00002191
2016-08-23 09:26:56 r, 00.00m,0000594241Hz,0000000000c,0000000.000s, 040.2C,00002191
2016-08-23 09:36:57 r, 00.00m,0000594110Hz,0000000000c,0000000.000s, 041.2C,00002191
2016-08-23 09:46:56 r, 00.00m,0000593975Hz,0000000000c,0000000.000s, 042.2C,00002191
2016-08-23 09:56:56 r, 00.00m,0000593783Hz,0000000000c,0000000.000s, 042.8C,00002191
2016-08-23 10:06:56 r, 00.00m,0000593691Hz,0000000000c,0000000.000s, 043.8C,00002191
2016-08-23 10:16:56 r, 00.00m,0000593570Hz,0000000000c,0000000.000s, 044.4C,00002191
2016-08-23 10:26:56 r, 00.00m,0000593428Hz,0000000000c,0000000.000s, 045.1C,00002191
2016-08-23 10:36:56 r, 00.00m,0000593347Hz,0000000000c,0000000.000s, 045.7C,00002191
2016-08-23 10:46:56 r, 00.00m,0000593262Hz,0000000000c,0000000.000s, 046.4C,00002191
2016-08-23 10:56:56 r, 00.00m,0000593258Hz,0000000000c,0000000.000s, 046.7C,00002191
2016-08-23 11:06:57 r, 00.00m,0000593098Hz,0000000000c,0000000.000s, 047.7C,00002191
2016-08-23 11:16:56 r, 00.00m,0000593014Hz,0000000000c,0000000.000s, 048.3C,00002191
2016-08-23 11:26:56 r, 00.00m,0000592782Hz,0000000000c,0000000.000s, 049.3C,00002191
2016-08-23 11:36:56 r, 00.00m,0000592683Hz,0000000000c,0000000.000s, 049.9C,00002191
2016-08-23 11:46:56 r, 00.00m,0000592727Hz,0000000000c,0000000.000s, 050.2C,00002191
2016-08-23 11:56:56 r, 00.00m,0000593256Hz,0000000000c,0000000.000s, 047.0C,00002191
2016-08-23 12:06:56 r, 00.00m,0000593490Hz,0000000000c,0000000.000s, 044.8C,00002191
2016-08-23 12:16:56 r, 00.00m,0000593696Hz,0000000000c,0000000.000s, 043.1C,00002191
2016-08-23 12:26:56 r, 00.00m,0000593759Hz,0000000000c,0000000.000s, 043.1C,00002191
2016-08-23 12:36:56 r, 00.00m,0000593634Hz,0000000000c,0000000.000s, 043.5C,00002191
2016-08-23 12:46:56 r, 00.00m,0000593335Hz,0000000000c,0000000.000s, 045.4C,00002191
2016-08-23 12:56:56 r, 00.00m,0000593186Hz,0000000000c,0000000.000s, 046.4C,00002191
2016-08-23 13:06:56 r, 00.00m,0000592581Hz,0000000000c,0000000.000s, 049.6C,00002191
2016-08-23 13:16:56 r, 00.00m,0000592627Hz,0000000000c,0000000.000s, 049.9C,00002191
2016-08-23 13:26:56 r, 00.00m,0000593102Hz,0000000000c,0000000.000s, 048.0C,00002191
2016-08-23 13:36:56 r, 00.00m,0000593245Hz,0000000000c,0000000.000s, 046.4C,00002191
2016-08-23 13:46:56 r, 00.00m,0000593246Hz,0000000000c,0000000.000s, 045.7C,00002191
2016-08-23 13:56:56 r, 00.00m,0000593184Hz,0000000000c,0000000.000s, 046.0C,00002191
2016-08-23 14:06:56 r, 00.00m,0000592919Hz,0000000000c,0000000.000s, 048.0C,00002191
2016-08-23 14:16:56 r, 00.00m,0000592879Hz,0000000000c,0000000.000s, 048.3C,00002191
2016-08-23 14:26:56 r, 00.00m,0000593234Hz,0000000000c,0000000.000s, 047.0C,00002191
2016-08-23 14:36:56 r, 00.00m,0000593252Hz,0000000000c,0000000.000s, 046.4C,00002191
2016-08-23 14:46:56 r, 00.00m,0000593097Hz,0000000000c,0000000.000s, 047.0C,00002191
2016-08-23 14:56:56 r, 00.00m,0000593053Hz,0000000000c,0000000.000s, 047.0C,00002191
2016-08-23 15:06:56 r, 00.00m,0000593195Hz,0000000000c,0000000.000s, 046.7C,00002191
2016-08-23 15:16:56 r, 00.00m,0000593382Hz,0000000000c,0000000.000s, 044.8C,00002191
2016-08-23 15:26:56 r, 00.00m,0000593600Hz,0000000000c,0000000.000s, 044.1C,00002191
2016-08-23 15:36:56 r, 00.00m,0000593754Hz,0000000000c,0000000.000s, 042.5C,00002191
2016-08-23 15:46:56 r, 00.00m,0000593940Hz,0000000000c,0000000.000s, 041.5C,00002191
2016-08-23 15:56:56 r, 00.00m,0000593889Hz,0000000000c,0000000.000s, 041.5C,00002191
2016-08-23 16:06:57 r, 00.00m,0000593763Hz,0000000000c,0000000.000s, 042.2C,00002191
2016-08-23 16:16:56 r, 00.00m,0000593590Hz,0000000000c,0000000.000s, 043.5C,00002191
2016-08-23 16:26:56 r, 00.00m,0000593752Hz,0000000000c,0000000.000s, 042.8C,00002191
2016-08-23 16:36:56 r, 00.00m,0000593964Hz,0000000000c,0000000.000s, 041.9C,00002191
2016-08-23 16:46:56 r, 00.00m,0000594024Hz,0000000000c,0000000.000s, 040.9C,00002191
2016-08-23 16:56:56 r, 00.00m,0000594011Hz,0000000000c,0000000.000s, 040.6C,00002191
2016-08-23 17:06:56 r, 00.00m,0000594156Hz,0000000000c,0000000.000s, 040.6C,00002191
2016-08-23 17:16:56 r, 00.00m,0000594073Hz,0000000000c,0000000.000s, 040.9C,00002191
2016-08-23 17:26:57 r, 00.00m,0000593841Hz,0000000000c,0000000.000s, 042.8C,00002191
2016-08-23 17:36:56 r, 00.00m,0000593699Hz,0000000000c,0000000.000s, 043.5C,00002191
2016-08-23 17:46:56 r, 00.00m,0000593823Hz,0000000000c,0000000.000s, 043.1C,00002191
2016-08-23 17:56:56 r, 00.00m,0000593788Hz,0000000000c,0000000.000s, 042.8C,00002191
2016-08-23 18:06:56 r, 00.00m,0000593779Hz,0000000000c,0000000.000s, 042.8C,00002191
2016-08-23 18:16:56 r, 00.00m,0000593935Hz,0000000000c,0000000.000s, 042.2C,00002191
2016-08-23 18:26:56 r, 00.00m,0000565963Hz,0000000000c,0000000.000s, 041.2C,00002191
2016-08-23 18:36:56 r, 00.00m,0000594192Hz,0000000000c,0000000.000s, 039.9C,00002191
2016-08-23 18:46:57 r, 00.00m,0000594270Hz,0000000000c,0000000.000s, 039.6C,00002191
2016-08-23 18:56:57 r, 00.00m,0000439776Hz,0000000000c,0000000.000s, 039.0C,00002191
2016-08-23 19:06:56 r, 06.21m,0000277251Hz,0000000000c,0000000.000s, 038.3C,00002191
2016-08-23 19:16:56 r, 06.33m,0000249533Hz,0000000000c,0000000.000s, 037.7C,00002191
2016-08-23 19:26:56 r, 08.23m,0000043071Hz,0000000000c,0000000.000s, 037.7C,00002191
2016-08-23 19:36:57 r, 06.30m,0000255872Hz,0000000000c,0000000.000s, 036.7C,00002191
2016-08-23 19:46:56 r, 00.00m,0000594719Hz,0000000000c,0000000.000s, 036.0C,00002191
2016-08-23 19:56:56 r, 00.00m,0000594742Hz,0000000000c,0000000.000s, 035.7C,00002191
2016-08-23 20:06:57 r, 00.00m,0000594624Hz,0000000000c,0000000.000s, 036.0C,00002191
2016-08-23 20:16:56 r, 05.82m,0000396491Hz,0000000000c,0000000.000s, 035.7C,00002191
2016-08-23 20:26:57 r, 07.18m,0000113908Hz,0000000000c,0000000.000s, 035.1C,00002191
2016-08-23 20:36:57 r, 10.03m,0000008208Hz,0000000000c,0000000.000s, 034.4C,00002191
2016-08-23 20:46:57 r, 11.54m,0000002037Hz,0000000000c,0000000.000s, 034.1C,00002191
2016-08-23 20:56:57 r, 11.80m,0000001604Hz,0000000000c,0000000.000s, 033.8C,00002191
2016-08-23 21:06:57 r, 13.92m,0000000228Hz,0000000000c,0000000.000s, 033.5C,00002191
2016-08-23 21:16:56 r, 15.80m,0000000040Hz,0000011499c,0000000.025s, 033.1C,00002191
2016-08-23 21:26:57 r, 17.19m,0000000011Hz,0000041412c,0000000.090s, 033.1C,00002191
2016-08-23 21:36:56 r, 19.08m,0000000002Hz,0000232209c,0000000.504s, 032.8C,00002191
2016-08-23 21:46:56 r, 19.43m,0000000001Hz,0000322264c,0000000.699s, 032.8C,00002191
2016-08-23 21:56:57 r, 20.25m,0000000001Hz,0000687956c,0000001.493s, 032.8C,00002191
2016-08-23 22:06:56 r, 20.63m,0000000001Hz,0000969673c,0000002.104s, 032.5C,00002191
2016-08-23 22:16:56 r, 20.89m,0000000001Hz,0001217944c,0000002.643s, 032.2C,00002191
2016-08-23 22:26:57 r, 20.13m,0000000001Hz,0000609365c,0000001.322s, 031.9C,00002191
2016-08-23 22:36:56 r, 20.00m,0000000001Hz,0000547081c,0000001.187s, 031.9C,00002191
2016-08-23 22:46:56 r, 20.43m,0000000000Hz,0000805965c,0000001.749s, 031.9C,00002191
2016-08-23 22:56:57 r, 20.86m,0000000000Hz,0001191878c,0000002.587s, 031.5C,00002191
2016-08-23 23:06:56 r, 20.85m,0000000000Hz,0001193584c,0000002.590s, 030.9C,00002191
2016-08-23 23:16:56 r, 20.87m,0000000000Hz,0001205326c,0000002.616s, 030.6C,00002191
2016-08-23 23:26:57 r, 20.83m,0000000000Hz,0001164446c,0000002.527s, 030.2C,00002191
2016-08-23 23:36:57 r, 20.85m,0000000000Hz,0001181218c,0000002.563s, 029.9C,00002191
2016-08-23 23:46:58 r, 20.89m,0000000000Hz,0001236331c,0000002.683s, 029.6C,00002191
2016-08-23 23:56:56 r, 20.67m,0000000000Hz,0001006188c,0000002.184s, 029.3C,00002191
